Theta_e
317 319 318 318 318 319 320 320 321 318 320 318 317 316 313 312 312 313 314 316 316 312 308 307 306 306 307 307 307 305 305 305 306 307 308 307 303 301 300 299 298 297 297 295 294 294 293 293 293 294 299 304 306 308 309 310 310 311 312 313 313 313 314 315 315 314 314 314 314 314 316 318 318 318 320 320 321 321 320 320 323 327 330 330 332 332 333 334 334 335 335 337 335 333 332 333 334
319 320 318 318 319 321 320 319 321 318 317 317 315 315 312 310 311 312 313 314 314 310 307 307 306 305 305 305 305 305 304 304 305 306 306 303 302 302 300 299 298 297 296 294 294 293 293 293 293 293 296 300 303 306 308 309 309 310 310 310 311 312 313 314 314 314 314 315 315 315 315 316 318 318 319 319 320 320 321 321 320 322 326 328 329 330 332 333 334 335 334 336 336 333 332 333 334
320 320 318 319 318 319 320 319 320 316 314 315 315 312 310 311 310 310 311 311 310 308 307 308 309 306 305 306 305 305 305 303 303 304 304 303 302 302 300 299 298 298 296 294 294 293 294 293 294 294 294 298 303 306 307 307 307 308 308 308 310 311 313 313 313 314 314 315 315 316 316 316 317 318 318 317 318 319 320 321 320 319 321 324 326 328 330 332 334 334 334 336 336 335 333 333 333
318 319 319 320 320 319 321 321 319 315 312 314 314 311 309 310 309 307 308 308 307 307 307 310 309 305 305 307 305 305 305 303 303 303 303 303 302 301 299 298 297 298 297 295 295 294 294 294 294 294 293 297 301 304 305 304 304 304 304 305 307 309 311 312 312 313 313 314 314 314 315 315 316 316 317 316 317 318 319 319 320 319 319 321 324 326 328 331 333 333 334 335 335 335 333 333 333
316 318 318 320 321 318 318 318 317 316 313 314 314 311 309 309 307 306 305 305 305 307 308 309 309 305 304 305 304 305 305 303 303 302 302 302 301 300 299 298 298 298 297 295 295 295 295 294 295 294 293 294 298 301 301 301 302 301 302 303 305 307 309 310 311 312 312 313 313 314 314 314 314 315 315 316 316 316 318 318 318 320 320 320 320 321 326 329 330 332 333 334 335 334 332 333 333
316 316 315 316 315 313 316 316 315 315 311 311 312 310 308 307 306 305 304 304 304 305 306 308 308 306 305 304 303 304 304 303 303 302 302 302 301 300 299 298 298 298 297 296 295 295 295 295 295 294 293 293 295 297 297 297 298 299 301 303 304 306 308 308 310 311 312 312 312 313 313 312 312 313 313 314 315 315 317 317 317 318 319 319 316 317 321 326 327 329 332 333 334 334 333 333 333
316 317 315 314 312 312 316 314 313 313 308 307 309 309 307 306 305 304 304 304 303 303 305 305 306 306 307 305 304 304 303 302 302 302 302 302 301 300 299 298 298 298 297 296 296 296 296 296 296 295 294 293 294 294 293 293 294 294 298 302 303 304 305 307 309 310 311 312 311 312 312 312 311 312 312 313 314 315 316 317 317 317 318 318 317 316 318 322 325 327 330 331 333 334 334 333 333
315 316 314 315 313 312 314 312 310 309 307 305 306 306 305 305 303 303 304 304 304 303 304 304 304 306 307 305 305 305 303 302 302 302 302 301 301 300 299 298 298 298 297 296 296 296 296 296 296 296 295 294 294 293 292 292 292 292 294 298 302 302 303 305 308 310 311 311 311 311 311 310 311 311 311 311 312 314 315 315 316 316 316 317 318 318 316 318 322 325 327 329 331 333 334 333 332
312 313 313 314 312 311 312 310 309 307 306 305 304 304 304 303 302 303 303 303 303 303 304 304 304 306 306 304 305 305 304 303 302 302 302 302 301 300 298 298 298 297 297 296 296 296 296 296 296 296 296 295 295 294 293 293 292 292 292 296 300 302 302 305 307 309 310 310 310 310 310 310 310 310 310 310 311 312 313 313 314 315 315 315 316 317 317 316 317 322 325 327 330 332 334 333 332
312 312 313 314 312 312 310 309 309 307 305 304 304 304 303 302 302 303 303 304 303 303 304 302 303 305 305 304 305 305 304 303 302 303 303 302 302 299 299 299 298 297 297 296 295 295 296 296 296 296 296 296 296 295 293 293 292 292 292 293 297 299 300 304 307 308 309 309 308 309 309 309 309 309 309 309 309 310 311 312 312 312 313 314 314 315 316 316 315 318 323 326 328 330 332 333 332
312 311 313 313 312 312 311 310 309 307 305 304 304 303 303 302 302 303 303 304 303 303 303 302 304 305 305 304 304 305 303 303 303 303 303 302 301 299 299 299 298 297 297 296 296 296 296 296 296 296 296 296 296 295 294 293 292 292 292 292 294 295 297 303 308 308 308 307 307 308 308 308 308 308 308 308 308 308 309 310 310 310 311 311 312 313 315 315 315 316 320 324 325 327 330 332 332
312 312 313 312 311 311 310 310 308 307 305 304 305 303 302 302 303 304 304 304 303 304 304 303 304 304 305 304 305 304 303 303 303 303 303 302 302 299 299 299 299 298 297 297 297 296 296 296 296 296 296 296 296 296 294 293 292 292 292 292 292 292 297 304 308 308 308 306 305 306 306 307 308 307 307 307 307 307 307 308 308 308 309 310 311 312 313 314 315 315 318 322 324 326 328 330 331
313 313 313 311 309 310 310 309 308 308 306 305 305 303 301 302 304 304 304 304 304 304 304 304 303 303 305 304 304 304 303 304 303 303 302 302 302 300 299 299 300 299 298 297 297 297 297 297 297 296 296 296 296 296 295 294 292 292 292 292 291 292 298 306 309 310 310 308 304 304 305 306 307 307 306 306 305 305 305 306 306 307 308 309 310 311 313 313 314 315 317 320 323 325 327 328 330
310 311 312 309 307 309 309 309 308 309 308 305 304 302 302 303 304 304 304 304 304 305 304 303 303 303 305 304 304 304 304 303 302 303 302 303 302 301 300 300 300 300 299 297 297 298 298 298 297 297 296 296 296 296 296 294 293 292 292 292 292 292 297 306 311 311 311 309 305 304 305 306 307 306 306 306 305 304 304 305 305 306 307 308 309 310 312 312 313 314 316 318 321 324 326 327 329
308 308 310 309 308 309 307 309 308 308 306 304 303 302 303 303 302 303 304 305 304 303 303 302 302 304 304 304 305 304 304 303 302 303 302 303 302 301 300 300 301 300 299 298 297 298 298 298 297 297 297 296 296 296 296 295 293 293 292 292 292 292 296 305 312 312 312 310 306 306 307 307 308 307 306 306 305 304 304 304 305 305 306 307 308 309 310 311 312 313 314 316 319 323 326 327 328
307 309 311 310 309 309 307 307 306 306 305 303 302 301 303 303 301 303 303 303 304 303 303 303 302 303 304 303 304 304 303 303 302 303 303 303 303 302 301 301 302 301 300 299 298 298 298 298 297 297 297 297 296 296 296 295 294 293 293 292 292 292 294 304 312 312 311 310 306 307 309 308 307 306 305 305 305 304 304 304 304 304 305 306 307 308 309 310 311 311 313 315 318 322 325 326 328
305 310 312 309 309 309 307 306 305 305 304 302 302 301 304 305 302 302 302 301 304 304 303 304 303 303 303 304 304 303 303 303 303 303 304 305 304 303 303 302 302 302 301 300 298 298 298 298 297 298 298 298 297 297 297 296 295 293 293 292 292 292 293 302 312 312 310 310 307 306 308 306 304 304 304 303 304 304 304 304 303 304 304 305 306 307 308 309 310 311 311 314 317 322 325 326 328
307 311 311 308 308 307 306 305 304 304 304 303 303 303 304 305 304 302 302 303 304 304 304 305 304 303 304 304 304 303 303 303 303 303 305 306 304 303 303 302 302 302 302 301 300 298 298 298 297 298 298 298 298 297 297 296 295 293 293 293 292 292 292 299 309 311 309 310 308 307 304 303 303 304 304 303 303 303 304 304 303 304 304 305 306 306 307 308 309 310 311 313 317 321 325 326 328
306 309 310 307 307 305 303 303 302 303 304 304 303 302 303 304 304 303 304 305 304 304 305 305 304 304 305 304 304 303 303 303 303 303 305 307 305 304 303 303 303 302 302 302 300 298 297 298 297 297 298 298 297 297 296 296 295 293 293 292 292 292 292 296 307 310 309 309 309 308 303 301 304 303 305 304 303 304 305 305 304 304 305 304 305 306 307 307 308 308 308 311 315 320 324 326 328
304 308 309 306 304 303 301 301 301 301 303 304 304 301 302 303 302 303 304 305 304 304 305 305 305 304 304 304 305 304 303 304 304 304 306 307 306 304 304 303 302 302 302 301 300 299 298 298 297 298 298 298 297 297 296 295 295 294 293 292 292 292 291 295 305 309 309 310 309 308 305 305 306 303 305 306 305 306 305 305 305 304 304 304 305 306 307 307 307 309 309 311 315 320 323 327 329
304 306 308 304 303 303 302 301 300 300 301 303 304 302 303 303 301 302 304 304 305 304 304 304 304 304 304 304 306 305 304 305 306 306 306 306 305 304 303 302 302 301 301 300 301 300 298 298 297 298 298 297 297 297 296 295 295 294 293 292 292 292 291 293 303 310 310 310 309 309 307 306 307 305 306 307 306 305 305 304 304 304 304 305 305 307 308 308 310 314 316 317 319 322 325 328 330
304 302 303 303 302 304 302 300 300 298 300 302 303 303 303 302 301 303 303 304 305 305 303 304 303 304 304 304 304 304 305 305 305 306 306 306 305 304 304 303 302 301 301 301 301 300 298 298 298 298 298 297 297 297 296 296 295 294 293 292 292 291 291 291 299 309 310 309 309 309 309 305 304 306 307 307 306 304 304 304 304 305 305 305 306 308 309 311 314 319 321 322 323 325 326 328 330
304 302 301 301 301 303 301 300 299 298 300 303 303 303 302 302 303 302 302 304 305 304 303 303 304 303 302 302 303 304 305 306 306 305 305 305 304 303 303 303 302 301 301 301 301 300 298 298 298 298 298 297 297 297 297 296 295 294 293 292 292 291 292 291 295 306 310 309 309 310 310 308 305 305 307 307 306 305 306 306 307 307 306 307 308 309 311 314 317 320 323 324 325 326 327 328 329
305 303 301 301 301 301 300 300 299 298 301 302 301 302 303 304 304 301 301 304 304 305 304 302 302 301 301 302 304 305 305 305 305 305 304 303 302 302 302 301 301 301 300 301 301 300 299 298 298 298 298 297 297 297 297 296 295 294 294 293 292 291 292 291 292 301 308 308 308 310 311 311 308 305 307 308 306 306 307 308 309 309 309 309 310 312 314 317 319 321 323 324 325 326 327 328 329
304 303 301 301 301 301 299 299 300 299 301 300 301 304 304 302 301 300 302 304 305 304 302 301 301 301 301 302 304 304 304 305 305 304 303 302 301 301 301 301 301 301 301 301 301 300 299 298 298 298 298 298 297 297 297 297 295 295 294 293 292 292 291 291 291 296 305 308 308 310 310 312 311 307 307 309 308 307 307 308 309 310 311 312 313 314 316 318 320 322 323 325 326 327 327 328 329
303 302 302 302 301 301 300 301 301 300 301 301 302 304 303 300 300 302 304 304 303 301 301 301 301 302 302 303 304 304 303 304 304 303 303 302 301 301 302 302 301 301 301 301 301 300 299 298 298 298 298 298 297 298 297 297 296 295 294 293 293 292 291 292 291 293 301 308 308 309 310 311 313 310 308 309 311 310 309 310 310 311 311 313 315 315 316 318 320 322 324 324 324 324 324 324 326
302 302 302 302 301 301 301 302 301 301 301 301 304 304 303 301 301 305 305 302 301 302 303 302 301 303 303 303 304 303 302 303 303 302 302 303 303 303 303 303 302 302 302 301 301 301 299 298 298 298 298 298 298 298 298 297 296 295 294 294 293 293 292 291 292 291 297 306 309 309 310 311 312 313 310 309 312 313 311 312 312 313 313 313 314 314 316 319 320 322 324 324 322 320 320 320 322
301 302 303 302 302 302 302 302 302 301 301 300 301 303 304 302 302 306 305 301 300 302 304 303 303 303 303 303 303 303 303 302 301 300 302 304 303 303 303 303 302 302 302 301 301 301 299 298 298 299 298 298 298 298 298 297 297 296 295 294 293 293 293 292 291 291 293 302 309 310 310 311 311 312 311 310 312 313 312 312 313 315 315 314 314 314 316 319 319 320 322 323 321 320 319 319 319
301 302 304 303 303 304 303 302 301 301 302 299 299 304 307 304 304 306 302 300 301 302 303 304 304 303 303 303 302 303 303 302 301 302 303 303 303 302 302 302 301 301 302 301 300 300 300 298 298 299 299 298 298 298 297 298 297 296 295 294 294 293 293 292 291 291 291 296 305 310 310 311 311 311 311 311 311 311 311 312 313 313 314 314 314 315 316 318 318 318 319 320 319 318 318 317 318
303 303 305 305 306 305 303 302 302 302 301 298 300 306 309 307 306 304 300 299 301 303 305 305 304 304 303 302 302 303 304 303 303 303 303 302 302 301 301 302 301 301 301 301 300 300 300 299 298 299 299 298 298 298 297 298 298 297 296 295 294 294 294 293 292 291 291 293 300 308 311 310 311 311 310 311 311 311 311 311 312 312 314 315 315 316 317 317 318 318 317 316 315 314 314 313 314
305 304 306 307 309 307 303 302 303 303 301 299 302 308 309 307 305 302 299 300 301 303 305 305 305 304 303 303 302 303 304 304 302 302 302 301 301 301 301 301 301 301 300 301 301 300 300 299 298 298 299 299 298 298 297 297 298 297 297 296 295 294 294 294 293 292 291 291 295 302 309 311 310 310 310 310 310 311 311 311 312 312 312 314 315 315 316 317 318 318 315 314 313 312 311 310 310
305 307 309 309 309 308 304 300 302 303 302 301 304 308 309 308 305 301 298 300 301 303 305 305 305 304 303 303 302 303 303 304 303 302 302 302 301 301 301 301 301 301 300 301 301 300 301 300 299 298 299 299 298 298 298 297 297 298 298 297 296 295 294 294 293 292 291 291 291 295 304 310 310 310 310 310 310 310 311 311 311 311 312 313 314 314 315 315 316 316 315 314 312 310 310 310 309
307 308 310 310 309 309 307 301 299 301 302 302 304 307 309 308 304 301 299 300 301 302 304 304 305 304 303 303 303 302 303 304 305 304 303 302 302 301 301 301 301 301 301 300 301 300 301 300 299 299 298 298 298 298 298 298 297 297 297 297 297 295 295 294 294 293 292 292 291 291 297 305 309 310 310 310 310 310 310 311 311 311 311 312 313 313 314 314 314 314 314 313 312 309 309 310 309
309 310 310 309 308 308 309 305 301 301 303 304 304 305 308 308 306 305 302 301 301 302 304 305 304 304 303 303 303 303 303 304 305 305 304 302 302 301 301 301 301 301 301 301 300 300 301 301 300 299 299 298 298 298 298 298 298 297 297 298 297 296 295 294 294 294 293 292 292 291 292 296 303 308 310 309 309 309 310 310 311 311 311 310 311 312 312 312 312 313 312 312 312 311 309 309 309
310 311 310 310 309 308 309 308 303 301 303 305 305 305 307 308 307 307 304 301 301 303 304 304 303 303 303 303 303 303 303 303 305 306 303 302 302 302 301 301 301 301 301 301 301 301 301 301 301 300 299 299 298 298 298 298 298 298 298 298 298 297 296 295 294 294 294 293 292 292 291 291 295 301 307 309 309 309 309 309 310 310 310 310 309 310 310 310 311 311 311 310 310 311 310 309 309
309 310 309 310 311 310 308 306 302 300 303 305 306 306 307 307 307 308 305 301 301 303 303 303 304 304 304 304 304 304 304 304 306 304 302 302 302 302 302 302 302 302 302 301 301 301 300 301 301 300 300 299 299 299 298 298 298 299 298 298 299 298 297 296 296 295 294 294 293 293 292 291 291 293 300 306 309 308 308 309 309 309 309 309 309 309 309 309 309 310 310 309 308 308 309 309 310
307 308 309 309 310 311 308 304 301 299 304 307 305 305 306 307 309 308 305 301 302 303 304 305 306 306 306 305 305 305 305 305 304 302 301 302 302 302 302 301 302 302 302 302 301 301 300 300 301 301 300 300 299 299 299 298 298 298 298 298 298 298 297 297 297 296 295 294 294 293 293 292 291 291 292 298 305 308 308 308 308 309 309 309 309 309 309 309 309 309 309 308 308 307 307 308 308
306 308 310 310 309 310 307 303 302 299 304 308 305 305 308 309 309 307 304 303 305 305 306 307 307 306 306 305 306 306 305 305 305 304 303 303 302 302 302 302 302 302 302 302 302 301 301 301 301 301 301 301 300 300 299 299 298 298 298 298 298 297 297 297 297 297 296 295 295 294 294 293 292 291 290 292 296 302 306 307 308 308 308 308 308 308 308 308 308 309 308 308 308 307 307 307 308
307 309 311 312 310 309 306 302 301 300 304 309 306 305 309 310 308 306 304 304 306 306 305 307 307 307 306 305 306 306 305 305 305 305 305 304 302 302 302 302 302 303 303 302 302 302 301 301 301 301 301 301 301 300 300 299 299 298 298 298 297 297 298 298 297 297 297 297 296 295 295 294 293 292 291 291 290 293 299 304 307 307 307 307 307 307 307 308 308 308 308 308 308 308 307 308 308
308 309 312 312 309 309 310 305 302 301 303 305 305 305 309 310 307 306 304 303 304 305 304 304 304 306 307 306 306 305 305 306 305 305 305 305 303 303 303 303 303 303 303 302 302 302 302 302 301 301 301 301 301 301 301 300 300 299 299 298 298 298 298 298 298 298 298 298 297 296 296 295 294 293 292 291 291 290 291 297 302 306 307 307 306 307 307 307 308 308 308 309 309 310 309 308 308
308 307 309 310 307 306 308 306 303 304 303 301 304 309 312 311 309 308 305 303 305 306 304 304 304 304 304 304 304 304 304 305 305 305 305 305 305 304 303 303 303 303 303 302 302 302 302 302 302 301 301 301 301 301 301 300 300 300 299 299 299 299 299 299 299 300 299 298 298 297 296 296 295 294 294 292 291 291 290 290 294 298 302 305 306 306 306 306 307 307 308 308 309 310 310 308 308
310 306 305 305 304 304 305 305 305 309 310 304 305 312 313 312 312 310 308 306 306 307 305 306 307 305 304 304 305 306 305 304 304 304 305 306 305 304 303 303 303 303 303 302 302 302 303 302 302 302 302 301 301 301 301 301 300 300 300 300 300 300 301 301 300 299 298 298 298 298 297 297 296 296 295 294 293 292 291 291 290 291 293 297 301 303 305 306 306 307 307 307 308 309 309 309 309
312 305 301 302 303 303 304 305 307 312 313 305 304 311 313 314 315 311 308 307 307 308 307 307 308 307 306 305 306 306 305 305 305 304 304 305 304 304 304 303 303 302 303 302 302 302 303 302 302 302 302 301 301 301 301 301 300 300 300 300 300 300 300 300 299 298 298 298 298 298 298 297 297 297 296 295 295 294 293 292 292 290 290 290 293 297 300 301 303 305 306 306 306 306 308 310 310
311 302 300 302 302 304 304 304 308 310 309 307 307 309 311 313 314 309 306 308 309 309 309 308 308 308 307 306 306 306 306 306 306 306 305 305 305 304 304 303 303 302 302 302 302 302 302 302 302 302 302 302 301 301 301 301 300 300 300 300 299 299 299 299 299 298 298 298 298 298 298 298 298 298 297 297 296 295 295 294 293 292 291 291 290 291 292 293 295 298 302 304 305 305 306 308 309
307 300 300 302 301 303 303 305 308 306 308 313 310 307 311 313 313 309 307 309 312 312 311 310 309 308 308 307 307 306 307 306 306 305 305 306 305 304 303 302 302 303 303 303 302 302 302 302 302 302 302 302 302 301 301 301 301 300 300 300 299 299 299 299 299 299 299 298 298 298 297 298 298 298 298 298 297 297 296 295 295 294 293 292 292 291 290 290 290 292 295 298 301 303 304 305 306
303 299 301 302 301 303 303 305 307 307 311 314 309 305 310 312 312 312 310 311 313 313 312 310 309 308 308 307 308 307 307 308 308 305 304 304 303 303 303 302 303 303 303 303 303 302 302 302 302 302 302 302 302 302 301 301 301 300 300 300 300 300 299 299 299 299 299 299 299 299 298 297 297 298 298 298 298 298 298 297 296 295 295 294 293 293 292 291 290 290 291 292 293 296 300 302 304
300 301 304 305 304 303 303 304 306 310 313 312 305 303 308 311 311 314 313 312 314 313 311 310 309 308 307 307 308 307 305 306 307 305 304 303 302 302 303 303 303 304 303 303 303 303 302 302 302 302 302 302 302 302 302 302 301 301 300 300 300 300 300 299 299 299 299 299 299 299 299 298 298 298 297 297 298 298 298 298 297 297 296 296 295 294 293 293 292 291 291 290 289 291 293 295 298
301 303 306 309 310 307 308 309 308 312 313 309 303 302 306 311 311 313 313 312 311 310 311 310 309 308 308 307 307 306 305 305 305 305 305 305 304 304 303 304 304 304 304 303 303 303 302 302 302 302 302 302 302 302 302 302 301 301 301 300 300 300 300 300 299 299 300 300 300 300 299 299 299 298 297 297 297 298 298 298 298 298 297 297 296 296 295 294 294 293 292 291 291 290 290 290 292
302 305 308 312 313 312 313 313 311 312 311 306 302 303 307 311 312 312 312 311 309 308 309 309 309 308 308 308 308 306 305 304 304 305 306 306 306 305 304 304 304 304 304 304 303 303 302 302 302 302 303 303 302 302 301 302 302 302 302 301 301 301 301 300 300 300 300 300 300 300 300 300 300 299 299 298 297 297 298 298 298 298 298 298 297 297 296 296 295 294 294 293 292 292 291 290 291
306 308 310 313 313 312 314 313 311 312 312 305 300 304 310 311 312 312 311 309 306 305 305 305 305 305 306 307 306 305 304 304 303 303 305 305 306 305 303 303 304 304 304 304 304 303 303 302 302 302 302 303 302 302 302 301 302 302 302 301 301 301 301 301 301 300 300 300 300 300 300 300 300 300 300 299 298 297 297 297 298 298 298 298 298 297 297 297 296 296 295 295 294 293 293 292 292
306 304 306 312 313 313 314 313 312 313 312 308 303 307 312 311 312 311 308 306 304 303 303 302 302 302 302 303 302 303 304 304 304 304 304 305 304 304 302 301 303 304 303 303 304 304 303 303 303 302 302 302 302 302 302 302 302 302 302 301 302 301 301 301 301 301 300 300 300 300 300 300 300 300 300 300 300 299 298 297 297 297 297 297 297 297 297 297 297 297 296 296 295 295 294 293 293
305 301 306 312 310 310 311 311 312 312 312 312 309 310 311 310 311 309 306 305 305 305 304 303 304 303 301 303 305 305 305 304 305 305 305 305 305 303 301 301 302 303 303 303 303 304 303 303 303 303 303 303 303 302 302 302 302 302 301 302 302 301 301 301 301 301 301 301 300 300 300 300 300 300 300 300 300 300 299 299 298 298 297 297 297 297 297 297 297 297 296 296 296 296 296 295 294
306 306 310 308 302 305 310 309 306 307 312 313 311 311 312 311 311 310 308 309 308 308 306 305 306 305 304 307 309 309 307 306 306 306 305 306 305 303 301 302 303 303 303 303 303 303 303 303 303 303 303 303 303 303 302 302 302 302 301 301 302 301 301 301 301 301 301 301 301 300 300 300 300 300 300 299 299 299 299 299 299 299 298 298 297 297 297 296 296 296 296 296 296 297 296 296 295
307 310 307 303 301 304 308 312 311 312 315 314 311 311 313 312 312 312 312 312 312 311 310 309 308 308 308 310 311 310 308 306 304 304 304 304 304 302 301 302 303 302 302 303 303 303 303 303 303 303 303 303 303 303 303 302 302 302 302 302 302 301 301 301 301 301 301 301 301 301 301 300 300 300 300 300 299 299 299 299 299 299 299 299 298 298 297 297 297 296 296 296 296 296 296 296 295
304 307 302 303 310 311 311 313 314 315 315 315 314 312 311 312 312 313 314 314 313 312 312 311 310 310 311 312 312 310 308 306 305 305 305 305 304 303 301 301 302 301 301 302 303 303 303 304 304 303 303 303 303 303 302 303 302 302 302 302 302 301 301 301 301 301 301 301 301 301 301 301 301 300 300 300 300 299 299 299 299 299 299 299 299 298 298 298 297 297 297 296 296 296 296 295 295
302 304 302 303 307 309 310 310 311 315 316 315 317 316 313 313 312 313 314 314 313 313 313 313 312 312 312 311 312 313 311 309 307 306 306 305 305 303 301 301 301 300 301 301 303 304 304 304 304 304 304 304 304 304 303 303 303 303 302 302 302 302 301 302 301 301 301 301 301 301 301 301 301 301 300 300 300 300 299 299 299 299 299 299 299 298 298 298 298 298 297 297 297 297 296 296 295
306 308 307 306 304 304 307 306 305 311 315 313 315 317 315 314 313 312 312 313 313 313 312 314 314 313 311 311 311 311 309 308 307 305 304 304 303 302 301 301 300 300 301 302 303 304 304 304 304 304 304 304 304 304 304 303 303 303 303 302 302 302 302 301 301 301 301 301 301 301 301 301 301 301 301 301 300 300 300 300 299 299 299 299 299 298 298 298 298 298 298 297 297 297 297 297 296
303 307 308 308 307 307 312 312 304 304 309 310 312 315 317 315 312 309 309 310 310 308 308 312 314 312 311 312 311 308 307 306 305 304 303 303 303 302 301 301 300 300 301 302 303 303 304 304 304 304 303 304 304 304 304 304 303 303 303 303 302 302 302 302 301 301 301 301 301 301 301 301 301 301 301 301 301 300 300 299 299 299 299 299 299 298 298 298 298 298 298 298 298 297 297 297 297
Wind_Speed
10 13 13 12 8 4 1 1 0 3 2 5 3 2 3 2 1 2 3 2 1 3 2 2 3 3 3 3 4 3 2 4 3 4 4 4 9 11 11 15 17 19 21 22 23 23 23 22 21 20 19 20 20 20 20 20 20 20 21 21 21 20 20 21 22 23 23 24 25 23 23 23 23 22 23 22 20 21 21 19 18 19 19 16 14 12 12 14 18 20 19 18 17 17 16 16 16
10 12 12 9 3 1 1 2 1 3 2 4 3 1 4 2 2 2 2 1 1 2 1 1 2 2 3 2 1 1 1 2 2 4 4 7 11 7 9 15 16 18 19 21 21 22 23 22 22 21 20 20 20 20 20 20 21 20 20 21 21 21 21 21 22 23 24 24 25 24 24 23 23 23 22 22 21 20 20 21 20 19 20 21 18 14 12 12 13 19 20 19 18 18 18 17 17
11 12 10 6 2 2 1 1 0 2 1 3 3 2 2 2 3 2 1 1 2 0 2 2 2 1 2 3 1 2 1 2 2 4 4 7 9 8 12 15 16 17 18 20 20 21 22 22 22 21 21 20 20 20 21 21 21 21 21 21 21 21 21 22 22 23 24 24 24 24 24 24 24 24 23 22 21 21 20 20 20 21 21 22 22 18 15 11 10 15 20 20 18 18 18 18 19
10 10 7 3 1 1 1 2 1 0 2 3 3 3 2 2 4 2 1 1 2 2 3 3 2 0 3 2 1 2 1 1 2 3 5 6 8 11 13 15 16 15 16 19 19 19 20 21 21 20 20 19 20 20 20 21 21 21 21 22 22 22 22 22 22 23 24 24 25 25 25 24 24 24 24 23 22 21 21 20 19 20 21 21 21 20 19 13 11 11 14 19 19 20 20 18 20
7 5 3 2 1 1 1 2 2 1 3 2 3 5 3 3 3 3 2 0 1 3 4 3 1 2 2 2 1 2 2 2 2 3 6 7 8 11 14 15 15 13 14 17 18 19 19 20 20 20 20 20 20 20 20 21 21 21 21 22 23 23 23 23 23 23 25 26 26 26 26 25 25 24 23 23 23 21 21 22 20 18 19 22 22 21 21 19 15 11 9 16 20 22 22 19 19
10 10 10 8 3 0 1 3 3 4 3 2 3 6 3 3 2 2 2 2 1 1 2 3 1 1 2 1 2 2 2 2 1 2 5 7 9 12 14 14 13 12 13 15 17 18 19 19 20 20 20 20 20 20 21 21 21 21 21 22 23 23 24 24 23 24 25 26 27 26 26 26 25 25 23 23 22 22 21 20 21 20 18 21 24 23 22 23 21 14 8 10 16 21 22 21 19
5 6 9 8 4 1 3 5 4 4 3 2 3 5 3 2 1 2 4 4 3 1 1 2 1 4 1 2 3 3 2 3 2 3 5 9 11 13 14 13 13 13 13 16 18 18 19 19 19 20 20 20 20 21 21 22 21 21 21 22 23 24 24 25 24 24 24 25 26 26 25 25 26 25 24 22 22 21 21 19 19 20 19 19 21 23 23 25 24 20 15 8 10 18 23 23 21
5 2 1 2 4 3 4 5 4 3 2 1 2 2 1 1 1 3 3 3 2 2 1 1 2 4 1 1 3 4 5 6 5 6 7 11 12 12 13 13 13 13 14 16 17 17 18 19 19 20 20 21 21 22 22 22 22 21 21 22 23 24 25 25 24 24 24 24 24 24 24 24 25 25 24 21 20 20 20 20 18 18 19 19 19 20 23 24 24 22 21 13 8 12 21 26 24
9 4 1 2 5 4 5 4 3 2 2 2 1 1 0 0 2 3 2 2 1 1 1 1 2 3 2 2 3 3 4 6 7 8 8 10 11 11 12 13 13 14 14 14 16 17 18 18 19 20 20 21 22 22 23 22 22 22 22 22 23 24 25 25 25 24 23 23 23 23 23 23 23 23 23 21 19 18 18 19 18 18 18 20 19 19 20 22 23 21 22 18 9 8 15 26 27
6 5 1 3 4 5 5 3 3 2 2 2 2 1 1 1 2 2 2 1 1 2 0 1 3 3 2 2 2 1 2 4 7 8 6 9 10 10 11 12 14 14 14 13 15 17 17 18 18 19 20 21 21 22 23 23 23 22 22 23 24 25 26 26 25 23 22 23 22 22 22 22 21 20 21 20 19 17 17 17 18 18 18 19 19 19 19 20 20 20 22 21 16 11 10 19 29
2 3 1 3 4 5 4 3 3 2 2 2 3 2 1 1 3 2 2 1 1 2 1 1 3 2 3 3 1 2 1 5 6 6 6 9 10 9 10 12 14 13 13 13 14 16 17 18 18 19 20 20 20 22 23 23 23 22 23 24 25 26 27 27 26 24 22 22 22 21 21 20 20 20 19 18 17 16 16 16 16 17 17 17 18 19 18 19 18 17 20 20 18 18 13 11 29
2 1 1 4 3 3 4 5 4 3 3 3 4 3 1 2 4 2 2 1 1 3 1 1 1 1 3 2 0 1 2 5 4 5 8 10 10 9 11 13 14 13 13 14 14 15 16 17 18 19 19 19 20 21 22 23 23 22 23 25 27 28 28 28 27 26 25 23 22 22 21 19 20 20 18 16 15 14 14 14 15 15 16 16 16 17 16 17 16 15 18 17 16 19 17 11 22
2 2 3 5 2 3 5 5 4 3 3 4 4 3 1 3 3 1 1 1 2 3 1 1 0 2 4 2 0 1 2 2 3 6 9 12 11 11 12 14 14 14 14 13 14 15 16 17 18 18 18 19 19 20 22 23 23 23 23 25 27 29 30 29 28 28 28 26 23 22 21 20 21 20 18 16 14 14 14 14 15 15 15 16 14 15 14 14 14 14 16 16 15 16 18 14 12
2 1 3 5 1 4 4 3 4 4 3 4 3 2 2 2 1 1 2 2 2 0 2 1 2 3 3 2 1 1 1 1 4 8 10 12 13 12 12 13 14 15 13 12 13 14 15 17 17 17 18 19 20 21 22 23 23 23 23 24 27 29 30 30 28 28 29 28 24 22 21 22 23 22 20 18 15 14 15 15 15 15 15 15 14 14 13 13 13 14 15 15 16 15 16 16 8
2 2 3 5 4 4 2 1 4 4 3 5 3 1 3 2 1 2 4 3 1 2 0 2 3 3 0 1 1 2 2 2 7 10 11 13 14 13 13 13 13 14 14 11 12 14 15 16 16 17 18 19 20 22 23 23 23 23 23 24 26 29 30 30 28 27 29 29 26 24 23 24 25 24 21 18 16 14 14 15 15 15 14 15 15 14 13 12 13 14 15 14 15 13 13 15 11
2 2 3 5 3 3 3 2 3 2 3 5 3 1 4 3 2 3 1 3 2 2 2 3 4 3 2 2 3 3 3 6 9 11 12 14 13 12 11 10 11 12 14 12 11 12 14 15 16 17 18 19 20 21 22 22 23 23 22 24 25 28 30 29 27 26 28 30 28 26 26 26 23 21 19 16 16 14 13 14 15 15 15 15 15 14 13 12 13 13 14 13 13 12 10 13 14
0 1 3 5 3 4 5 6 4 2 4 5 4 3 5 4 4 2 0 3 5 2 4 5 4 4 6 5 4 4 6 9 11 11 11 12 11 10 9 9 9 10 12 12 11 12 13 14 16 17 19 20 20 21 22 22 23 23 23 24 25 27 30 29 27 27 27 30 31 28 27 24 19 18 18 14 15 15 13 14 15 16 14 14 14 14 13 12 12 13 13 13 12 11 12 13 14
0 1 3 5 3 3 5 5 3 1 5 7 5 4 4 2 4 1 2 6 6 5 7 7 5 7 11 9 8 9 11 11 11 10 10 10 10 9 10 9 10 10 11 11 11 12 13 14 15 17 19 20 20 21 22 23 23 24 23 24 25 27 30 30 28 28 29 30 31 31 25 18 18 19 19 15 14 15 14 14 14 13 13 12 13 13 13 11 11 12 12 12 11 12 15 14 14
2 1 3 4 2 3 2 2 3 1 4 7 5 3 3 1 2 1 3 4 3 7 7 6 7 9 10 11 10 10 10 9 10 10 10 10 9 10 11 10 10 11 11 12 13 13 13 14 15 16 18 19 20 21 21 23 24 24 23 24 25 27 30 31 29 28 29 29 29 31 22 16 19 18 18 18 15 15 15 14 11 9 9 9 10 11 11 10 10 10 11 12 11 12 15 14 13
2 1 3 4 3 4 1 1 2 1 2 6 5 2 3 1 1 0 4 6 5 8 7 5 7 7 6 7 5 5 7 7 8 9 10 10 10 10 10 11 11 11 12 14 16 15 14 14 15 16 17 19 20 20 21 22 23 23 23 23 24 26 29 30 29 27 28 28 28 29 23 19 20 18 19 23 18 16 17 15 11 8 7 6 7 7 8 7 5 5 8 10 9 10 13 13 12
2 2 3 6 4 4 3 2 1 1 0 3 4 2 3 1 1 2 3 6 6 6 5 6 7 6 4 4 2 2 6 7 8 9 10 11 10 10 10 11 12 13 15 15 15 14 14 14 15 16 16 17 19 20 20 21 22 22 22 23 23 25 27 29 28 27 27 28 27 29 28 22 21 21 21 22 22 19 18 16 11 8 6 5 5 5 5 4 2 1 2 6 7 8 10 12 12
5 3 4 7 3 3 5 1 2 1 0 1 3 2 1 1 2 3 5 7 4 2 1 4 6 6 5 4 4 4 7 8 9 9 10 11 10 10 11 11 12 13 14 14 13 14 14 14 14 15 16 16 17 18 19 20 20 21 21 21 22 23 26 28 28 27 26 28 27 28 30 24 19 23 23 21 22 18 16 16 11 8 7 5 5 5 3 2 1 2 3 6 6 6 10 13 13
4 3 2 3 1 3 5 1 2 1 1 2 1 1 1 1 4 1 5 11 8 3 1 1 3 3 4 4 5 6 8 8 10 11 10 10 10 11 11 12 12 12 14 14 14 14 14 14 14 15 16 16 16 17 18 19 19 20 20 20 21 22 24 26 27 26 26 27 28 26 29 27 20 20 25 24 20 16 13 13 12 9 6 5 5 3 3 2 3 2 3 5 4 6 9 11 12
5 6 3 1 2 3 3 2 2 1 1 0 2 2 2 4 4 2 5 13 12 8 2 2 4 3 4 5 6 7 8 9 11 13 12 11 10 10 12 13 13 13 15 14 12 13 13 13 14 14 15 15 15 16 17 18 18 18 19 19 20 20 22 24 26 27 26 26 27 26 27 29 23 18 24 26 20 15 13 12 12 9 5 4 4 3 3 3 2 1 2 2 2 6 7 8 11
8 7 5 2 3 4 3 2 2 0 1 1 2 4 3 3 3 4 10 12 7 5 3 3 4 4 5 6 8 8 8 10 10 12 12 10 9 10 11 12 13 13 13 12 12 13 13 13 13 13 14 15 15 16 16 17 18 17 18 18 19 20 20 22 24 26 26 25 25 26 25 28 27 20 22 26 23 18 14 14 14 10 8 6 5 5 4 4 3 1 0 1 3 6 7 9 14
5 6 6 5 4 3 2 2 3 2 1 1 4 6 2 2 3 6 12 9 1 1 2 1 2 4 6 6 8 7 8 10 9 10 10 9 9 9 9 10 12 12 12 12 13 13 12 12 12 13 13 14 14 15 16 16 16 17 17 17 18 19 19 20 23 24 25 25 24 25 26 27 28 25 22 24 26 24 20 19 18 14 11 9 7 7 5 5 5 2 4 6 5 6 8 10 15
7 9 8 7 4 3 2 2 4 3 1 2 5 7 2 3 3 5 3 3 4 2 3 2 2 5 6 6 6 6 7 9 8 9 9 9 8 8 8 8 9 10 11 12 11 12 13 12 12 12 13 14 14 14 15 15 15 16 16 16 16 17 18 19 21 23 24 24 24 24 26 26 27 27 24 23 26 28 26 25 22 17 14 12 9 8 6 4 5 5 6 7 6 7 10 12 15
8 7 9 7 4 4 3 2 4 3 1 2 5 8 4 4 3 7 0 5 4 3 3 2 4 6 6 5 5 5 6 7 7 8 8 9 8 7 8 8 9 10 11 11 11 13 14 13 12 12 12 13 13 14 14 14 15 15 15 15 15 16 17 18 19 20 22 23 24 23 24 25 25 26 24 22 24 27 28 28 26 21 15 12 10 9 7 5 6 7 7 7 7 9 12 13 16
5 2 5 5 3 4 4 2 3 3 1 3 4 7 5 7 7 5 2 4 3 3 5 4 5 5 5 4 4 5 5 5 6 7 8 9 9 9 11 10 10 11 10 11 12 13 14 13 13 12 12 13 13 13 14 14 14 14 14 14 14 15 16 17 17 18 20 22 23 23 23 24 24 25 25 22 22 23 24 26 27 24 17 12 11 10 10 11 10 11 10 10 12 13 15 15 16
3 1 2 3 3 3 4 3 2 1 1 4 4 3 0 5 8 2 5 4 3 4 6 5 4 4 4 3 4 5 5 5 6 7 8 10 11 11 12 11 10 11 11 11 12 13 13 13 13 12 12 13 13 13 13 13 14 13 13 13 13 14 15 16 17 17 19 21 22 23 23 23 22 23 24 24 23 22 22 23 24 24 19 15 12 11 12 13 12 12 13 13 16 18 18 17 17
2 0 0 1 1 2 4 5 5 1 1 4 4 3 1 2 1 3 4 2 2 6 7 6 5 4 4 3 4 5 5 6 8 10 11 12 13 13 13 12 11 11 11 12 12 13 13 13 13 13 13 13 13 13 13 13 13 13 13 13 12 13 13 14 16 17 17 19 21 21 22 22 22 22 24 24 22 22 23 23 23 22 20 18 15 13 13 13 11 12 14 15 17 18 17 16 17
1 1 1 1 1 1 4 4 6 3 0 3 3 4 3 3 2 4 3 2 1 5 7 6 7 6 6 5 4 5 6 7 10 12 11 9 11 12 13 13 12 11 11 12 13 13 13 12 12 13 13 13 14 14 13 13 13 13 12 12 12 12 13 13 14 15 16 18 19 20 20 21 21 21 23 24 22 21 22 23 22 20 20 21 19 16 15 14 12 12 13 15 15 14 15 16 15
1 1 1 1 1 1 2 3 5 4 2 2 2 4 5 2 2 4 3 1 2 5 8 8 8 7 6 5 4 5 6 7 9 9 7 6 7 10 12 13 12 12 11 12 12 13 13 12 12 12 13 13 14 14 14 14 13 13 12 12 12 11 11 12 13 14 16 17 18 18 19 19 19 20 21 23 22 20 20 21 21 21 21 21 21 19 17 16 15 14 14 14 14 14 15 16 15
1 1 0 1 1 1 1 2 3 4 2 2 2 5 10 7 4 4 4 2 4 8 10 9 7 6 5 5 5 5 5 6 8 8 6 6 7 8 11 12 13 13 12 12 12 12 13 12 12 12 12 12 13 13 15 15 15 14 12 11 11 11 11 11 11 13 14 16 16 17 17 18 18 18 19 20 21 20 19 19 19 21 22 21 22 21 19 17 16 16 16 15 16 16 17 17 16
2 2 1 1 1 2 2 0 2 5 2 4 4 7 12 12 10 8 4 3 5 8 8 7 6 6 6 5 5 5 5 6 7 7 8 8 8 9 10 11 12 12 12 12 12 12 12 12 12 12 11 11 12 13 14 15 15 15 14 13 11 10 10 10 11 12 13 14 15 15 16 17 16 16 17 17 19 19 19 19 18 19 21 21 20 20 19 18 17 17 17 18 18 17 17 16 15
3 2 1 1 2 1 2 1 3 4 4 6 6 6 11 12 11 8 2 4 5 7 6 5 6 5 5 5 5 5 5 6 5 7 9 8 8 9 10 10 10 11 11 11 11 11 11 11 12 12 11 10 11 12 13 14 14 14 14 14 12 11 12 11 11 12 12 13 13 14 15 15 15 15 15 15 16 17 17 17 18 18 19 19 19 18 17 17 16 16 17 18 17 15 15 15 13
2 1 0 1 3 1 0 0 1 2 5 4 4 7 12 13 12 7 1 3 5 7 6 5 5 4 4 4 5 5 5 5 6 10 11 9 9 9 9 9 9 9 9 10 10 11 11 11 11 11 10 10 11 11 12 13 13 12 13 14 14 15 14 12 11 11 11 12 12 13 13 13 13 14 14 14 15 15 15 15 15 17 17 18 18 17 16 15 14 14 14 15 13 11 11 10 9
1 1 1 1 2 2 0 0 0 1 3 2 2 8 13 11 9 4 2 4 6 7 7 6 6 5 4 5 6 5 4 4 5 8 8 8 9 8 8 7 7 8 8 8 9 10 10 11 11 9 9 9 10 10 11 12 12 12 13 13 15 16 15 13 11 10 10 11 12 12 12 12 12 13 13 13 13 13 13 12 12 13 14 14 16 16 15 14 13 13 11 10 10 9 8 7 5
0 0 2 0 1 3 1 1 1 1 2 2 3 8 11 9 6 4 5 5 4 4 5 5 5 5 5 5 5 3 4 4 4 6 6 7 8 7 7 6 6 7 7 8 8 9 10 10 10 9 9 9 10 10 10 11 12 12 12 13 14 14 14 13 12 10 9 10 12 12 11 11 11 11 11 11 12 12 12 11 11 11 11 11 10 11 12 12 12 12 9 7 7 7 7 7 6
1 1 2 1 3 3 1 2 1 3 2 4 7 8 7 5 3 3 3 2 4 3 5 5 5 6 5 3 4 3 5 5 5 6 5 6 7 6 6 6 7 8 8 8 8 9 9 9 9 9 10 10 10 10 10 11 12 12 12 12 13 13 13 12 12 10 10 10 10 11 11 11 10 10 10 10 10 11 10 10 9 9 9 9 7 6 8 9 10 10 9 7 6 5 4 4 5
1 2 2 2 3 4 3 3 6 4 2 3 8 6 3 1 2 3 2 0 4 2 3 6 6 6 6 6 5 4 6 6 6 6 5 5 6 6 7 7 8 9 9 9 8 9 9 8 8 9 10 11 11 11 11 11 11 12 12 12 11 11 11 10 8 7 9 10 10 10 10 10 10 10 9 9 9 9 9 9 8 7 7 6 5 4 4 5 6 7 7 7 6 5 4 3 3
1 0 2 2 3 4 6 7 6 3 3 1 5 3 2 2 3 4 2 1 4 1 2 6 5 3 4 5 5 4 5 6 6 7 8 7 8 9 10 10 10 11 10 10 9 10 9 8 8 9 10 11 11 11 11 11 12 12 12 11 9 8 8 8 7 7 8 9 9 8 9 10 10 9 9 9 8 8 7 7 7 6 6 5 4 3 2 2 2 3 4 4 3 4 4 3 3
0 0 1 0 2 4 5 6 4 2 0 2 3 3 2 0 2 1 2 4 6 4 5 7 5 4 4 5 4 3 4 5 5 7 8 9 10 11 11 11 12 13 12 11 11 11 10 9 9 9 10 10 10 11 11 12 12 12 12 12 12 11 11 11 10 11 11 9 8 7 6 8 9 8 8 8 7 7 7 6 6 5 5 4 4 3 2 1 1 0 1 1 1 1 1 2 3
1 1 0 1 2 3 3 4 3 1 2 2 2 3 3 2 0 2 3 4 6 7 8 8 7 6 5 5 4 4 5 4 4 6 7 8 10 11 12 14 15 14 14 13 12 11 11 11 10 10 10 10 10 11 12 13 13 13 13 14 15 15 15 14 13 13 13 11 10 9 7 7 7 7 7 7 6 6 6 6 6 5 4 4 3 3 3 2 2 2 1 1 2 2 3 3 3
2 2 0 1 2 1 1 3 2 1 2 2 3 4 3 2 1 2 1 3 6 6 5 6 7 7 6 6 5 5 5 4 4 6 7 8 10 12 15 17 18 16 13 13 13 12 12 13 13 12 12 11 10 11 12 12 13 14 14 15 16 16 16 15 14 14 13 12 11 11 9 8 8 7 7 7 6 5 5 5 5 5 5 4 4 3 3 3 2 3 3 2 3 3 4 4 3
2 2 1 1 1 0 1 2 1 1 3 1 4 6 3 2 1 2 1 2 4 3 2 3 4 5 5 5 5 5 5 4 4 5 7 11 14 16 17 18 18 15 13 13 14 14 14 14 15 15 14 13 12 12 12 12 13 14 15 16 16 16 17 16 15 14 13 12 12 11 11 11 10 9 8 8 7 6 5 5 5 5 5 5 5 5 4 4 3 3 3 3 4 4 4 5 5
1 2 2 2 2 1 1 1 1 2 2 2 3 5 4 2 0 1 1 1 1 1 1 2 3 4 6 6 6 6 5 4 3 5 8 12 17 18 16 16 17 15 13 14 14 14 15 15 16 17 17 16 14 14 13 13 13 14 15 16 16 16 16 16 16 15 14 13 12 11 11 12 12 12 11 10 9 8 7 6 6 6 6 6 6 6 6 6 5 5 5 5 5 5 5 6 6
1 2 2 2 2 2 2 2 1 2 1 3 1 4 3 3 1 1 1 1 3 3 2 3 4 5 5 6 6 6 5 4 4 5 6 8 12 13 14 15 15 16 15 15 16 15 15 15 16 18 19 18 17 15 15 15 14 15 15 15 15 16 15 16 16 16 15 14 13 12 11 11 12 13 13 13 12 11 10 9 9 8 8 8 8 8 8 8 8 8 7 7 7 7 7 7 7
2 2 2 2 1 1 1 1 1 2 1 3 0 2 2 5 3 2 3 3 4 4 3 2 2 3 4 5 5 4 3 4 5 5 5 6 7 10 14 16 15 16 17 17 17 17 16 16 16 18 19 19 18 17 17 16 16 16 16 15 15 15 15 16 16 16 16 16 15 13 12 12 12 12 13 14 14 14 14 13 12 11 11 10 10 10 10 10 10 10 10 10 10 9 9 9 9
1 1 2 3 1 1 1 1 1 2 1 2 1 2 2 4 3 3 4 3 1 2 4 4 4 5 6 5 5 5 5 6 5 5 5 6 7 10 15 17 16 16 17 17 18 18 18 17 17 18 19 19 18 18 18 19 19 18 17 16 16 16 15 15 16 17 16 16 16 15 15 14 14 13 13 13 14 16 17 17 16 15 15 14 13 13 12 12 12 12 13 13 13 13 13 12 12
0 1 2 2 2 2 2 1 2 3 2 0 1 2 2 1 1 1 3 4 3 4 4 4 6 7 6 6 6 7 7 7 5 5 6 8 9 11 15 18 19 18 18 18 17 17 18 19 19 19 19 20 19 19 20 20 21 20 19 18 18 17 17 16 17 17 17 17 17 17 17 16 16 15 14 13 14 15 17 18 19 19 18 18 17 16 16 15 15 15 15 15 15 15 15 15 15
1 1 2 1 2 2 1 1 1 2 3 1 1 2 2 1 3 1 2 5 5 5 4 5 7 6 4 6 7 7 7 6 5 5 6 8 10 11 15 19 19 20 20 19 17 16 17 19 20 21 21 21 21 21 21 21 22 22 21 21 20 20 19 18 18 18 18 18 18 18 19 19 18 18 17 16 15 15 16 17 19 20 20 20 20 20 20 19 19 19 19 19 18 18 18 18 18
0 1 0 2 1 1 1 1 0 1 2 1 0 3 4 2 2 1 1 3 4 4 5 6 7 5 4 6 6 6 6 5 5 5 6 8 9 12 17 18 18 19 20 20 18 17 17 19 21 23 24 24 23 23 22 22 22 22 23 23 23 22 22 22 21 20 19 19 19 19 19 20 20 20 19 18 17 17 17 18 19 20 20 21 21 22 22 22 22 22 23 23 22 21 21 21 21
2 0 2 2 1 0 0 1 0 0 2 1 1 3 5 2 0 0 1 2 3 3 3 4 5 4 5 7 6 6 6 6 6 7 8 9 10 13 18 18 17 19 20 20 20 18 19 20 21 23 25 26 26 24 23 22 22 22 22 23 23 24 24 24 24 23 22 22 22 21 21 21 21 20 20 20 19 20 20 20 20 20 21 21 21 22 22 23 24 24 25 25 25 24 24 25 25
1 1 2 1 1 0 0 1 1 2 3 3 2 3 4 3 1 1 2 3 4 3 1 3 4 4 4 5 5 6 6 5 6 6 6 7 8 12 16 17 19 21 22 22 21 20 20 21 21 23 24 26 26 25 25 24 22 22 22 22 23 24 25 25 25 26 26 26 25 25 24 24 23 22 22 21 21 22 22 22 22 22 22 22 22 22 22 23 24 25 26 27 26 26 27 28 28
1 1 1 0 1 2 2 1 1 2 2 3 3 3 2 4 3 2 3 4 3 3 2 3 4 3 4 4 4 5 5 5 5 6 5 7 9 12 16 19 22 23 24 24 23 22 22 22 22 23 24 25 25 26 26 25 24 22 22 22 22 23 24 25 26 26 27 28 29 28 27 27 26 25 24 23 23 24 24 24 24 24 24 24 24 23 23 23 24 25 26 27 27 27 27 29 30
2 2 1 2 1 0 0 1 0 2 2 2 2 4 4 2 2 4 4 1 1 2 2 3 4 5 5 5 5 5 5 6 6 6 6 8 10 13 17 21 23 24 25 25 24 24 23 23 22 22 23 24 25 24 24 25 25 23 22 22 22 22 23 24 25 26 27 29 29 29 30 29 29 28 27 26 25 25 25 26 26 26 26 26 26 25 25 24 25 26 27 27 27 27 27 29 30
2 1 0 1 1 1 1 0 1 1 2 1 1 5 6 1 1 4 3 1 1 2 2 4 5 6 6 6 6 5 6 7 8 8 7 9 12 13 16 21 24 26 27 26 25 25 24 23 23 22 22 23 24 23 22 23 24 25 25 24 23 23 24 24 25 26 27 28 29 30 30 30 31 31 29 28 28 27 27 27 27 28 28 28 27 27 27 26 26 27 28 28 28 28 28 29 30
Wind_Direction
154 155 150 142 132 149 100 354 134 56 80 90 84 136 86 56 75 124 126 141 183 97 50 10 18 351 345 15 37 41 10 351 355 327 348 10 334 328 337 340 340 338 336 337 338 342 344 347 347 345 345 341 340 339 338 338 337 337 336 336 335 335 334 333 333 331 331 331 329 326 326 325 320 316 314 312 308 304 298 289 280 277 282 285 290 304 302 284 261 248 243 237 225 216 215 219 212
151 154 159 153 110 245 161 319 230 103 123 104 85 76 86 138 155 102 83 73 44 84 135 12 41 38 28 52 62 181 128 25 324 318 324 321 322 327 342 339 338 338 336 339 342 344 347 350 349 349 348 344 342 340 339 339 339 339 338 337 336 336 334 333 333 333 333 332 331 329 326 323 321 317 312 308 306 303 300 295 285 278 279 276 277 290 299 306 280 251 245 241 227 219 213 217 214
145 149 156 155 73 11 131 317 205 131 133 102 104 94 105 161 122 92 64 344 5 88 208 277 271 291 267 211 214 283 88 80 273 285 292 314 325 334 337 332 335 338 338 341 345 347 349 351 350 352 351 346 342 340 340 339 340 339 339 338 337 336 334 334 333 334 332 331 329 328 325 322 319 317 313 306 303 301 299 297 290 283 283 278 274 279 282 301 301 259 245 242 236 227 217 220 219
141 155 171 198 143 35 50 41 28 132 105 102 116 122 165 146 114 121 82 344 332 239 221 267 249 104 287 284 37 275 331 32 260 273 294 319 326 327 326 325 333 335 338 341 345 349 351 352 352 355 353 348 343 341 340 339 340 340 341 340 339 337 335 334 333 333 331 330 329 327 324 322 318 315 313 307 301 298 296 296 293 286 284 284 279 274 271 276 302 291 255 244 240 231 222 221 222
117 143 177 250 232 48 50 83 34 18 91 82 115 135 166 147 139 155 143 134 337 239 227 265 256 113 275 319 350 269 357 314 256 252 280 315 320 319 321 323 330 331 335 340 345 350 352 353 354 356 354 350 346 344 342 341 341 341 342 341 341 339 336 334 332 332 332 330 329 327 324 322 319 314 310 307 301 297 296 294 291 288 282 281 279 274 267 264 282 301 265 248 244 231 221 219 221
100 93 75 75 87 290 138 102 78 68 65 8 101 134 158 156 175 194 199 188 135 284 234 254 289 277 220 149 243 276 6 318 308 264 270 310 316 315 319 320 324 330 334 339 344 349 351 353 354 356 355 353 350 347 345 344 344 344 343 342 341 340 337 335 333 333 333 331 328 327 324 320 319 316 309 304 301 296 294 294 290 288 285 280 278 276 269 260 268 278 268 267 257 235 222 220 219
115 98 62 79 89 353 83 88 89 85 74 349 67 121 142 151 222 237 217 198 179 164 201 237 296 275 224 117 240 208 219 259 289 295 280 301 310 313 317 319 321 328 335 338 342 346 348 350 353 355 356 355 353 350 349 348 347 348 347 345 343 342 339 337 335 334 334 333 330 327 324 322 320 318 312 304 300 297 292 293 291 287 286 285 281 280 272 261 262 265 261 282 279 243 223 218 218
64 87 345 76 74 38 75 88 82 66 94 4 10 99 89 67 243 239 211 214 193 156 183 165 233 258 116 135 256 160 206 241 257 287 289 293 302 308 317 319 318 324 332 335 337 341 345 348 351 353 354 354 354 353 352 351 350 352 353 349 345 343 341 338 336 333 334 333 332 329 326 323 321 318 315 308 299 295 292 291 291 289 286 286 288 284 275 265 262 265 265 273 296 262 230 217 214
48 39 224 80 83 85 79 89 85 59 114 147 209 130 358 344 231 238 206 205 196 220 230 62 224 265 73 217 264 131 213 242 256 281 290 291 298 307 321 322 317 321 327 331 335 340 343 346 349 350 351 352 354 353 353 353 353 355 357 355 348 344 342 340 337 334 333 331 331 331 329 326 322 321 318 313 303 296 292 289 289 289 287 285 286 286 281 271 263 267 269 265 277 287 246 223 214
40 22 107 91 96 111 99 107 104 103 127 160 213 174 218 210 223 233 221 165 131 252 96 57 232 262 338 267 279 117 224 249 264 285 299 300 304 312 323 324 321 321 323 330 334 339 341 344 347 348 349 350 353 352 354 355 355 357 359 360 353 348 346 344 342 336 332 332 333 331 331 331 327 324 322 317 308 298 292 290 288 287 286 283 282 283 285 279 267 268 264 262 268 278 281 230 217
68 26 69 107 103 117 118 133 123 136 149 202 215 197 216 228 235 212 216 149 149 255 116 173 220 238 276 275 293 98 251 257 268 294 315 316 313 312 321 329 330 325 325 332 334 338 340 343 345 347 347 348 352 352 356 357 358 359 360 2 358 354 353 350 349 343 337 334 333 332 330 332 331 326 323 320 313 302 294 291 289 287 286 283 282 280 283 282 274 271 261 266 274 265 290 250 215
114 89 93 103 95 105 115 134 135 147 172 216 189 165 187 228 231 188 198 174 164 227 181 215 283 289 257 270 347 112 252 260 273 296 318 327 318 311 325 335 339 335 329 331 334 336 339 343 345 345 345 347 351 353 357 359 1 0 1 3 360 359 357 355 353 349 347 341 334 333 331 330 331 328 322 318 314 307 298 292 290 288 287 284 283 279 280 281 276 272 259 266 280 262 274 275 215
92 128 103 96 57 109 124 128 134 166 182 208 173 134 192 223 224 157 202 185 202 226 138 138 243 243 262 299 332 224 257 250 283 306 323 330 325 318 324 331 339 341 332 329 332 334 338 345 344 343 344 347 351 353 358 1 2 2 3 2 359 0 359 358 357 353 351 347 341 335 333 335 335 333 327 316 311 308 300 295 292 287 287 284 281 279 277 276 274 269 262 266 277 266 263 278 231
67 89 77 106 125 119 131 116 148 194 157 165 154 135 205 226 235 175 246 221 196 238 80 135 224 235 255 275 191 199 42 94 302 319 327 328 330 321 320 325 333 340 336 329 329 334 339 344 343 343 346 350 352 354 358 1 4 4 3 1 360 1 0 1 359 357 352 348 348 346 342 342 341 336 332 322 311 308 305 300 296 290 287 284 280 278 275 270 270 266 267 273 270 270 266 272 266
78 124 73 110 140 129 165 139 158 199 141 153 148 144 207 190 187 214 250 263 127 79 87 193 216 252 274 271 318 42 32 333 313 321 323 325 328 319 316 319 325 335 341 335 328 334 339 341 343 347 349 352 353 354 356 359 3 5 3 1 1 2 2 2 1 360 355 348 351 359 358 350 344 338 335 329 318 312 309 305 299 294 288 285 282 277 275 267 266 266 267 273 262 263 267 263 265
69 147 99 112 147 150 179 168 164 187 142 156 127 144 211 162 182 236 268 298 291 147 226 211 196 265 295 258 315 15 328 309 313 318 320 323 324 317 312 311 318 328 339 343 334 332 335 341 346 350 352 352 353 353 354 357 2 5 4 2 2 3 3 4 4 3 358 350 352 5 7 355 348 343 338 331 323 317 310 307 301 296 290 286 284 276 275 268 263 266 264 265 259 251 248 247 251
290 208 103 107 143 156 171 176 174 133 128 156 150 185 214 167 174 237 164 257 264 217 234 240 204 242 248 251 298 308 295 303 310 317 320 320 320 317 310 310 317 320 331 341 340 335 334 342 347 351 352 351 352 351 353 356 1 5 4 2 2 4 5 6 6 5 4 357 356 6 8 358 352 348 344 335 329 326 316 311 303 296 293 287 286 279 275 272 264 265 263 261 257 239 229 236 245
295 234 91 110 143 140 159 171 160 98 142 161 167 191 224 189 158 176 229 224 242 259 250 245 238 237 240 255 274 277 288 302 309 316 319 319 319 318 316 315 316 318 325 334 339 338 334 340 346 350 350 348 351 351 352 356 360 4 5 3 3 4 6 8 7 6 8 4 360 4 5 357 353 353 352 342 331 329 322 316 307 296 295 287 283 280 275 273 268 263 259 256 252 228 218 230 238
42 88 88 110 125 99 101 129 135 164 137 151 159 186 234 233 111 131 261 239 233 270 257 229 245 246 239 247 257 269 285 296 303 310 315 316 316 314 315 315 314 319 325 329 335 338 336 338 343 348 348 347 349 351 352 356 358 2 5 4 4 5 7 10 10 7 8 8 4 5 5 356 352 353 357 354 342 336 335 330 319 302 297 290 281 281 275 272 269 260 249 245 240 219 215 228 229
4 48 94 108 121 101 95 176 140 301 114 155 160 162 238 227 53 284 278 286 267 265 264 240 254 260 245 237 238 263 283 293 298 305 314 316 314 310 313 315 315 318 320 327 333 340 339 333 338 343 346 346 347 351 353 354 355 0 4 4 6 6 8 11 11 9 8 10 11 9 10 10 4 357 359 360 357 353 350 345 334 318 307 300 296 292 279 275 281 271 248 231 217 205 212 226 218
46 14 73 115 154 122 132 206 110 320 316 169 151 160 234 129 113 257 280 291 270 259 265 260 269 282 277 253 232 279 287 294 297 305 316 315 314 311 313 313 311 314 317 325 329 335 336 330 335 339 343 346 346 350 351 352 353 359 3 4 7 7 8 12 13 12 8 11 16 13 10 15 18 14 8 1 360 358 351 345 335 324 319 316 317 307 291 287 317 337 214 188 184 195 211 217 207
72 23 45 106 160 116 124 181 87 132 27 155 166 200 274 89 223 242 255 264 273 330 339 266 278 297 308 299 299 304 287 291 299 307 316 313 311 308 312 313 310 312 313 320 323 328 333 329 332 336 341 345 346 349 348 350 352 357 2 3 7 8 9 11 13 14 11 13 19 17 12 11 17 21 18 8 1 353 342 340 336 333 334 331 331 322 319 325 55 71 167 160 169 205 208 209 205
104 77 54 92 358 92 121 112 105 172 166 166 189 332 355 288 260 229 245 251 258 300 39 299 305 332 334 316 294 292 286 294 301 304 311 305 300 303 309 311 308 307 308 313 319 327 332 328 331 334 339 342 345 348 348 349 350 354 359 4 8 8 10 12 13 15 14 17 20 22 20 15 14 18 20 16 5 353 344 343 343 345 352 355 354 360 23 56 78 85 191 173 174 208 203 205 205
90 110 116 74 47 81 92 81 127 237 308 80 347 317 284 289 296 17 258 253 256 266 280 286 297 326 313 292 276 280 287 291 293 298 304 296 288 296 305 309 307 304 306 310 314 322 326 325 330 334 338 341 343 348 349 348 347 350 357 5 9 9 12 12 14 16 17 19 20 23 25 22 18 17 24 21 10 1 358 0 3 2 1 3 16 26 24 45 97 184 230 218 180 191 194 194 191
64 107 133 110 81 80 79 82 102 75 336 343 293 275 293 335 322 301 265 258 256 275 306 286 277 280 265 265 271 275 284 285 289 296 298 290 285 293 303 308 307 303 302 305 311 318 322 320 326 333 336 341 342 347 350 347 345 347 355 3 8 10 13 12 15 18 19 21 22 24 27 27 24 20 27 27 21 16 11 14 23 26 22 14 16 14 1 20 40 325 7 110 143 162 169 171 175
63 106 126 117 96 77 95 100 63 35 17 348 275 279 328 48 316 271 258 265 359 357 289 260 255 263 253 256 269 273 280 285 291 294 291 285 281 286 296 302 302 300 296 301 311 315 317 317 321 330 333 339 343 346 349 347 344 345 350 359 6 11 13 14 17 19 20 25 26 27 28 30 30 27 29 31 30 29 27 27 30 32 38 41 33 18 8 37 60 68 112 126 133 145 150 152 161
96 107 106 95 97 78 83 100 43 11 75 3 292 288 315 81 302 260 236 8 21 314 243 200 236 259 260 261 269 270 272 280 290 291 284 278 273 274 285 298 299 295 296 301 307 311 316 315 315 324 330 336 341 345 347 346 345 344 345 354 5 10 13 15 19 20 21 26 29 31 32 32 34 34 33 33 36 38 37 36 33 31 39 48 47 32 25 64 108 120 134 139 139 137 135 139 147
106 114 102 81 93 86 66 84 26 347 96 12 304 288 275 129 239 253 64 39 12 316 266 234 246 259 266 269 272 266 265 276 284 277 271 273 274 276 283 292 296 293 295 297 302 312 317 314 310 318 326 332 339 343 346 346 345 343 342 350 0 7 13 17 19 21 23 26 30 33 36 35 34 38 39 35 38 43 44 43 39 35 36 41 49 51 56 93 121 122 133 136 131 130 128 131 138
106 133 102 94 134 92 46 46 11 330 31 351 302 283 244 178 220 244 42 15 356 317 278 262 253 262 273 278 285 276 275 279 273 262 259 268 268 270 276 284 291 291 293 295 301 313 317 314 309 311 319 326 335 341 342 344 344 343 342 344 352 3 13 17 18 22 24 27 29 32 37 39 36 39 44 42 40 44 45 47 46 44 41 41 55 70 86 100 104 102 105 110 112 117 119 121 130
120 353 71 125 173 120 37 9 331 315 48 334 300 289 147 179 220 191 49 358 329 286 266 269 267 275 284 286 298 290 287 275 271 272 265 268 266 265 272 280 289 289 293 297 299 308 315 316 309 305 312 319 326 335 338 341 342 341 342 341 344 358 9 16 19 21 26 29 30 30 35 41 41 41 47 47 45 47 47 47 49 51 49 47 53 67 85 93 95 95 94 100 105 108 110 111 117
115 10 248 143 214 125 60 14 345 49 111 330 307 275 5 53 188 86 39 4 322 273 264 273 274 281 288 285 293 291 289 278 282 291 286 277 269 266 270 276 283 287 295 299 298 302 309 314 310 304 305 310 316 325 331 335 340 340 339 339 341 350 2 13 18 20 25 30 32 30 32 39 43 45 50 52 49 50 52 50 50 53 56 56 52 57 73 79 84 92 94 97 99 100 104 105 108
58 267 174 93 294 109 85 38 13 26 326 322 305 271 301 350 42 87 54 29 20 273 268 274 275 277 281 279 281 286 290 284 286 295 301 294 275 268 270 274 278 283 293 299 300 298 302 310 309 305 302 303 309 314 322 328 334 338 338 339 341 345 354 5 14 20 24 30 33 32 31 35 40 46 53 57 56 54 55 54 54 54 58 62 59 58 65 69 73 84 90 94 96 94 98 102 106
88 306 43 83 296 50 109 92 35 2 313 299 258 277 302 319 87 122 141 311 313 282 274 272 275 276 275 275 272 276 284 286 287 291 306 315 289 272 268 271 275 280 288 296 301 299 298 304 305 305 301 298 304 308 314 321 327 333 337 340 342 342 349 358 6 17 24 29 32 33 34 34 37 43 52 60 62 61 60 59 60 60 61 65 67 65 64 67 71 77 79 82 88 88 92 98 100
117 359 22 107 276 306 307 130 44 346 301 269 231 253 273 267 262 240 194 221 273 270 272 275 276 273 268 269 267 264 267 274 279 282 294 306 297 282 271 271 274 278 284 289 298 301 299 300 301 303 302 299 303 308 312 316 321 328 332 338 343 342 346 353 359 12 23 28 30 32 36 36 35 39 47 59 67 68 67 66 67 69 68 68 70 70 70 70 70 75 79 80 83 85 88 92 93
66 16 345 40 236 234 297 220 20 355 315 270 253 245 269 273 274 272 217 184 250 257 268 276 274 271 268 265 264 264 264 263 268 277 286 289 289 288 280 275 276 279 283 286 291 296 298 299 299 298 301 302 304 309 312 313 319 324 328 334 343 348 347 350 356 6 16 23 28 29 34 37 37 38 42 52 66 72 72 72 72 74 75 72 71 72 73 74 75 78 83 87 86 86 87 89 91
65 56 33 337 288 253 301 359 43 1 312 268 245 252 279 282 282 284 216 173 235 253 257 260 258 261 262 262 262 260 265 267 278 294 286 277 280 284 281 278 281 284 286 288 289 290 294 296 295 295 298 300 304 310 312 313 317 320 324 331 338 344 346 350 355 1 7 14 20 25 31 35 36 39 42 46 58 70 75 77 77 77 79 77 75 74 73 77 80 83 86 89 88 88 89 93 96
98 130 106 272 284 298 241 87 89 357 307 258 224 267 279 277 283 288 241 188 232 239 236 242 242 241 245 254 260 258 265 272 290 298 286 272 272 273 273 275 280 289 292 293 293 290 289 288 289 294 294 296 302 306 306 308 312 313 319 325 328 333 340 347 350 354 1 6 10 18 25 28 32 37 42 45 50 60 69 77 83 84 83 84 84 81 79 79 81 86 87 89 89 87 89 95 99
118 227 302 191 243 297 37 333 85 26 314 240 209 281 275 273 280 271 217 218 221 209 204 210 209 218 234 240 250 256 265 270 280 284 274 263 263 263 267 270 275 287 293 296 298 294 288 283 285 291 291 292 296 297 298 302 304 304 307 313 318 324 331 335 338 345 356 2 2 8 15 19 25 32 36 43 49 53 59 64 74 84 88 90 91 89 87 84 85 88 88 88 85 79 76 81 93
358 243 280 257 315 302 283 174 187 336 290 282 319 295 284 284 286 262 229 229 233 214 216 217 201 214 225 230 243 253 263 266 258 254 248 247 250 252 257 261 270 280 286 291 295 294 290 284 283 285 286 287 288 288 291 293 295 296 298 302 307 312 318 323 330 337 350 1 0 360 4 7 14 23 29 35 42 47 53 58 60 70 83 91 91 93 93 92 93 95 100 105 94 81 73 74 85
25 12 309 326 4 324 259 130 311 293 264 309 311 289 282 289 268 244 228 251 301 302 284 284 274 259 266 295 304 289 278 275 261 250 241 238 242 243 244 248 262 270 276 284 285 285 286 283 279 278 279 282 283 282 283 285 289 291 292 295 297 301 308 316 324 329 339 352 357 355 354 358 4 9 19 27 34 38 44 54 58 61 77 87 84 86 93 98 102 105 111 118 118 108 97 92 90
70 16 354 335 339 314 292 325 319 291 196 307 309 275 245 241 219 217 147 344 293 311 303 281 268 267 287 308 300 271 270 276 277 275 268 261 257 251 247 250 257 263 269 275 275 274 278 280 276 273 275 277 278 279 278 281 285 287 289 291 295 299 303 310 318 320 325 333 340 346 346 350 357 358 4 13 22 30 34 43 52 55 65 77 75 71 81 91 100 110 115 120 134 138 134 144 124
130 98 11 337 324 299 295 318 317 267 172 27 330 284 187 139 231 237 111 305 269 223 282 266 245 236 258 273 265 244 251 259 266 276 284 288 282 274 268 264 266 269 273 275 270 268 272 275 272 272 273 273 275 274 273 276 279 281 281 280 282 286 291 292 289 287 293 303 314 327 334 339 348 353 355 358 3 14 22 29 37 43 46 56 63 55 53 68 74 104 114 112 137 151 150 166 175
111 71 31 347 314 298 312 332 319 268 309 359 345 326 318 200 227 252 33 299 274 254 249 253 242 227 226 235 240 236 247 248 246 260 273 278 279 278 276 277 281 283 285 283 274 267 267 268 268 270 270 269 269 266 267 270 272 273 272 269 268 268 270 275 279 281 281 282 290 301 312 322 331 341 347 349 350 351 358 7 15 26 28 32 42 34 16 4 359 30 137 131 200 187 204 221 192
355 76 13 292 309 307 337 336 308 334 315 259 32 12 286 269 112 67 2 292 271 262 248 240 233 229 228 226 226 236 248 252 250 257 261 265 272 277 281 288 293 294 292 287 279 271 266 265 267 268 268 267 264 261 262 265 266 268 268 266 266 265 265 273 280 282 282 283 284 284 285 294 306 318 327 335 339 335 336 338 343 356 2 7 15 9 352 348 345 330 311 260 266 273 276 277 247
23 103 255 326 330 327 332 304 285 328 273 210 51 8 274 264 104 112 351 285 266 266 251 236 225 218 220 220 221 234 247 250 249 259 268 272 276 281 289 296 297 296 294 287 280 274 267 264 265 267 269 269 265 262 262 263 265 265 265 264 265 269 272 276 281 282 285 287 284 281 278 274 277 287 297 307 315 318 320 317 316 321 323 330 332 331 332 328 327 322 321 312 293 284 278 277 272
60 143 187 135 158 172 295 298 289 258 255 162 29 352 317 314 118 149 138 254 260 267 253 243 220 213 218 217 223 232 242 245 237 251 265 272 279 286 294 298 297 295 292 286 281 277 272 268 267 269 271 273 271 269 266 265 265 263 264 266 267 272 276 279 281 282 285 286 284 282 277 269 266 266 269 277 286 292 297 297 294 295 296 296 296 298 305 305 300 295 292 293 287 283 282 276 271
103 203 227 197 195 197 208 281 285 247 228 104 32 347 328 319 80 173 193 186 216 204 209 215 199 208 217 219 228 234 238 245 245 257 263 270 280 288 296 298 296 295 292 287 284 281 278 273 272 273 274 274 273 271 270 269 268 265 266 269 271 274 277 279 279 281 285 285 284 282 276 269 264 260 258 258 263 268 273 275 276 279 280 282 281 280 282 282 281 279 276 278 277 273 273 271 269
240 241 252 234 197 198 207 196 216 264 310 97 46 342 309 266 182 137 198 193 215 225 225 211 201 206 214 221 232 236 241 253 258 264 266 272 282 289 294 296 295 292 290 290 289 288 283 278 277 277 278 278 275 272 270 270 269 270 272 271 273 276 277 278 278 280 283 283 282 282 276 270 265 261 257 253 252 254 257 257 258 262 265 268 271 272 272 272 270 271 270 270 270 267 264 262 263
242 246 263 271 205 178 232 198 205 277 20 106 119 343 278 245 256 269 255 231 226 240 269 287 244 229 236 242 247 250 257 264 263 266 271 273 277 280 285 290 292 290 288 288 289 290 289 285 281 280 282 283 280 276 272 270 270 271 273 273 274 276 276 276 277 279 282 282 281 279 274 272 269 263 258 254 250 248 250 252 251 251 253 254 258 262 266 268 267 267 267 265 264 264 262 257 255
265 299 319 313 347 20 330 322 278 285 27 114 203 317 277 258 268 253 266 299 320 269 277 288 279 264 265 272 277 282 277 267 262 260 266 266 264 270 278 282 285 289 292 290 286 285 287 287 285 283 285 287 286 281 276 273 271 270 270 270 271 272 273 274 275 277 279 279 278 277 274 271 269 266 263 257 251 246 247 251 251 250 249 248 249 251 255 259 261 264 265 264 264 263 262 258 257
349 323 308 315 355 346 323 317 315 312 320 123 166 289 268 317 359 206 268 309 305 262 255 268 268 263 272 284 282 276 270 264 258 253 257 259 258 266 275 277 277 283 292 295 289 283 282 282 283 283 283 285 286 285 281 276 273 271 268 267 267 268 269 271 273 275 276 276 275 275 274 271 270 270 268 262 256 249 248 250 251 251 250 249 248 247 247 249 251 255 259 261 262 262 261 260 260
126 181 263 318 357 340 16 12 351 330 305 273 224 264 239 276 305 271 272 283 270 250 235 248 259 250 254 272 268 261 260 259 257 257 260 259 258 267 275 278 279 282 289 294 293 289 284 280 279 279 278 280 281 282 283 282 279 275 270 266 266 267 267 267 269 272 274 275 274 272 272 273 272 271 269 267 263 256 253 252 251 252 251 250 249 248 247 246 246 248 251 254 256 258 259 260 260
199 247 6 50 346 286 114 98 147 209 276 271 298 286 281 278 278 279 299 285 264 243 229 238 252 248 249 262 260 256 261 264 265 265 265 266 266 272 277 280 283 287 292 293 294 294 290 284 280 277 276 276 277 279 281 283 283 279 274 270 267 267 267 268 269 271 271 271 270 270 271 272 273 273 272 270 266 262 259 257 255 254 253 252 251 250 249 248 247 247 248 249 250 252 256 258 259
285 40 93 109 232 223 184 283 292 264 283 300 42 300 302 311 287 294 308 282 251 232 236 252 252 243 246 255 259 263 268 273 275 271 266 267 266 269 275 279 285 292 295 295 296 295 290 287 284 282 280 279 278 278 278 280 281 281 280 276 272 270 269 270 271 271 270 269 268 268 270 271 273 274 273 271 268 266 264 262 260 259 258 256 253 253 251 250 250 249 250 250 250 251 252 255 257
317 69 114 209 284 40 284 297 335 335 308 293 305 306 279 243 215 235 196 206 229 225 252 279 259 243 246 259 272 274 274 276 274 271 266 264 265 270 278 284 292 297 297 297 298 295 289 286 285 284 284 283 283 280 277 276 278 280 282 281 278 276 274 273 272 271 270 268 268 269 270 271 273 273 273 272 269 267 266 265 265 264 262 261 258 256 254 253 252 252 252 253 253 252 252 253 255
224 181 159 317 3 350 359 24 315 303 305 294 313 331 256 214 210 226 201 196 217 224 250 275 274 278 275 274 279 280 283 282 276 277 277 273 273 277 283 290 295 297 297 297 297 294 289 285 283 283 284 285 285 283 280 276 275 278 281 281 281 280 278 277 275 274 271 270 270 270 270 271 272 271 272 272 270 269 268 267 267 266 265 263 261 259 257 256 255 255 255 255 256 255 254 254 255
213 198 165 130 107 309 273 104 357 306 291 266 294 298 272 221 182 215 219 209 227 242 269 283 291 294 289 278 275 283 290 288 284 280 279 280 280 282 288 294 298 298 298 297 295 293 289 286 283 282 282 284 285 286 284 279 275 275 277 279 280 280 280 279 278 277 275 274 273 272 271 272 272 271 270 270 271 271 269 268 266 266 266 265 263 261 259 258 257 257 257 257 258 258 256 256 257
309 290 229 155 135 196 232 243 64 341 279 240 271 288 282 283 149 225 235 257 275 260 273 285 285 284 287 284 277 282 289 287 288 288 287 288 287 289 295 298 299 299 298 298 295 293 290 289 287 285 282 281 282 284 286 283 278 275 275 277 277 277 278 278 279 278 278 278 277 276 275 273 272 271 271 270 270 271 271 268 266 265 265 265 264 262 260 258 258 258 259 259 259 258 257 257 257